Avoca, PA

5:02 PM EST on November 13, 2019 (GMT -0500)
Wilkes-Barre-Scranton International

Weather History for KAVP - September, 2019

Change the Weather History Date:

Thursday, September 26, 2019

  Actual Average Record
Temperature  
Mean Temperature 60 °F 58 °F  
Max Temperature 66 °F 68 °F 91 °F (2017)
Min Temperature 54 °F 48 °F 34 °F (1947)
Degree Days  
Heating Degree Days 5 7  
Month to date heating degree days 29 102  
Since 1 July heating degree days 30 128  
Cooling Degree Days 0 1  
Month to date cooling degree days 81 50  
Year to date cooling degree days 820 574  
Growing Degree Days 10 (Base 50)    
Moisture  
Dew Point 57 °F    
Average Humidity 87    
Maximum Humidity 100    
Minimum Humidity 73    
Precipitation  
Precipitation 0.35 in 0.14 in 1.46 in (1977)
Month to date precipitation 1.14 3.50  
Year to date precipitation 38.80 28.53  
Sea Level Pressure  
Sea Level Pressure 29.86 in    
Wind  
Wind Speed 2 mph (SSW)    
Max Wind Speed 9 mph    
Max Gust Speed 12 mph    
Visibility 7 miles    
Events Rain    
T = Trace of Precipitation, MM = Missing Value Source: NWS Daily Summary

Daily Weather History Graph

Daily Weather History Graph

Search for Another Location

Airport or City:

Astronomy

Sep. 26, 2019 Rise Set
Actual Time 6:54 AM EDT 6:53 PM EDT
Civil Twilight 6:26 AM EDT 7:21 PM EDT
Nautical Twilight 5:54 AM EDT 7:53 PM EDT
Astronomical Twilight 5:21 AM EDT 8:25 PM EDT
Moon 3:55 AM EDT (9/26) 6:07 PM EDT (9/26)
Length of Visible Light 12h 54m
Length of Day
11h 59m
Waning Crescent, 7% of the Moon is Illuminated
Sep 26
Waning Crescent
Sep 28
New
Oct 5
First Quarter
Oct 13
Full
Oct 21
Last Quarter

Hourly Weather History & Observations

Time (EDT) Temp. Dew Point Humidity Pressure Visibility Wind Dir Wind Speed Gust Speed Precip Events Conditions
12:54 AM 57.9 °F 51.1 °F 78% 29.83 in 10.0 mi East 4.6 mph - N/A   Clear
1:54 AM 57.9 °F 50.0 °F 75% 29.84 in 10.0 mi East 4.6 mph - N/A   Scattered Clouds
2:54 AM 55.9 °F 51.1 °F 84% 29.83 in 10.0 mi Calm Calm - N/A   Partly Cloudy
4:54 AM 55.9 °F 50.0 °F 80% 29.79 in 10.0 mi ESE 3.5 mph - N/A   Mostly Cloudy
5:54 AM 54.0 °F 51.1 °F 90% 29.80 in 10.0 mi Calm Calm - N/A   Clear
6:54 AM 55.0 °F 52.0 °F 89% 29.79 in 10.0 mi SE 3.5 mph - N/A   Overcast
7:54 AM 55.9 °F 52.0 °F 87% 29.79 in 9.0 mi Calm Calm - N/A   Partly Cloudy
8:54 AM 60.1 °F 53.1 °F 78% 29.81 in 10.0 mi Calm Calm - N/A   Overcast
9:54 AM 64.0 °F 55.0 °F 73% 29.80 in 10.0 mi NW 4.6 mph - N/A   Overcast
10:54 AM 64.0 °F 57.0 °F 78% 29.79 in 5.0 mi Calm Calm - 0.00 in Rain Light Rain
11:54 AM 66.0 °F 59.0 °F 78% 29.78 in 10.0 mi WSW 5.8 mph - 0.01 in   Mostly Cloudy
12:54 PM 63.0 °F 60.1 °F 90% 29.82 in 2.0 mi Variable 3.5 mph - 0.06 in Rain Rain
1:05 PM 63.0 °F 60.1 °F 90% 29.83 in 4.0 mi Variable 4.6 mph - 0.02 in Rain Light Rain
1:22 PM 63.0 °F 60.1 °F 90% 29.84 in 2.0 mi SW 5.8 mph - 0.04 in Rain Rain
1:30 PM 62.1 °F 59.0 °F 90% 29.84 in 1.0 mi SW 4.6 mph - 0.08 in Rain Heavy Rain
1:51 PM 60.8 °F 59.0 °F 94% 29.84 in 1.5 mi Variable 5.8 mph - 0.18 in Rain Heavy Rain
1:54 PM 61.0 °F 59.0 °F 93% 29.83 in 1.5 mi SW 5.8 mph - 0.20 in Rain Rain
1:59 PM 61.0 °F 59.0 °F 93% 29.83 in 1.8 mi SSW 5.8 mph - 0.02 in Rain Rain
2:07 PM 61.0 °F 59.0 °F 93% 29.83 in 2.5 mi SSW 5.8 mph - 0.04 in Rain Rain
2:17 PM 61.0 °F 59.0 °F 93% 29.83 in 4.0 mi SW 5.8 mph - 0.05 in Rain Light Rain
2:36 PM 61.0 °F 59.0 °F 93% 29.83 in 2.5 mi SW 6.9 mph - 0.06 in Rain Rain
2:40 PM 61.0 °F 59.0 °F 93% 29.83 in 3.0 mi SSW 4.6 mph - 0.07 in Rain Light Rain
2:54 PM 61.0 °F 59.0 °F 93% 29.81 in 4.0 mi South 4.6 mph - 0.08 in Rain Light Rain
3:54 PM 64.0 °F 60.1 °F 87% 29.81 in 10.0 mi WNW 6.9 mph - 0.00 in   Overcast
4:17 PM 64.0 °F 60.1 °F 87% 29.83 in 9.0 mi West 5.8 mph - N/A   Mostly Cloudy
4:37 PM 64.9 °F 60.1 °F 84% 29.83 in 10.0 mi Variable 3.5 mph - N/A   Scattered Clouds
4:54 PM 64.9 °F 60.1 °F 84% 29.82 in 10.0 mi Calm Calm - N/A   Partly Cloudy
5:54 PM 64.0 °F 60.1 °F 87% 29.85 in 10.0 mi WNW 3.5 mph - N/A   Overcast
6:54 PM 64.0 °F 60.1 °F 87% 29.86 in 8.0 mi SW 3.5 mph - N/A   Mostly Cloudy
7:07 PM 63.0 °F 60.1 °F 90% 29.88 in 8.0 mi Calm Calm - N/A   Overcast
7:16 PM 63.0 °F 60.1 °F 90% 29.88 in 9.0 mi SW 3.5 mph - N/A   Overcast
7:34 PM 62.1 °F 60.1 °F 93% 29.89 in 8.0 mi South 3.5 mph - N/A   Scattered Clouds
7:54 PM 62.1 °F 59.0 °F 90% 29.90 in 9.0 mi Calm Calm - N/A   Clear
8:29 PM 60.1 °F 57.9 °F 93% 29.92 in 6.0 mi Calm Calm - N/A   Scattered Clouds
8:38 PM 60.1 °F 57.9 °F 93% 29.94 in 7.0 mi Calm Calm - N/A   Mostly Cloudy
8:54 PM 60.1 °F 57.9 °F 93% 29.93 in 6.0 mi Calm Calm - N/A   Overcast
9:33 PM 61.0 °F 59.0 °F 93% 29.96 in 7.0 mi SW 3.5 mph - N/A   Mostly Cloudy
9:51 PM 60.8 °F 57.2 °F 88% 29.97 in 5.0 mi SSW 3.5 mph - N/A   Partly Cloudy
9:54 PM 60.1 °F 57.9 °F 93% 29.96 in 5.0 mi SSW 3.5 mph - N/A   Partly Cloudy
10:17 PM 59.0 °F 57.0 °F 93% 29.97 in 2.0 mi SW 3.5 mph - N/A   Clear
10:42 PM 57.9 °F 55.9 °F 93% 29.98 in 3.0 mi South 3.5 mph - N/A   Clear
10:54 PM 59.0 °F 57.0 °F 93% 29.98 in 7.0 mi Calm Calm - N/A   Clear
11:30 PM 57.0 °F 55.0 °F 93% 29.99 in 5.0 mi North - - N/A   Partly Cloudy
11:54 PM 55.9 °F 55.0 °F 97% 29.99 in 5.0 mi Calm Calm - N/A   Clear